Location: Kinloch
(38.7406°N, 90.3254°W)
Time: 15:54:09
(UTC+00:00)

IRS-1D - Pass Details

Date: 13 February 2026
Orbit: 736 x 811 km, 98.8° (Epoch: 9 March)

Event Time Altitude Azimuth Distance (km) Brightness Sun altitude
Rises 12:00:27 0° 3° (N) 3,297 6.7 -11.1°
Reaches altitude 10° 12:03:01 10° 353° (N) 2,352 5.9 -10.6°
Maximum altitude 12:07:32 31° 293° (WNW) 1,330 4.2 -9.8°
Drops below altitude 10° 12:11:57 10° 232° (SW) 2,296 5.6 -8.9°
Sets 12:14:26 0° 222° (SW) 3,206 6.4 -8.5°
